Location: ČR
(50.0000°N, 15.0000°E)
Time: 07:18:40
(UTC+02:00)

A-11 Canister half - Pass Details

Date: 16 March 2026
Orbit: 1514 x 1685 km, 47.2° (Epoch: 18 April)

Event Time Altitude Azimuth Distance (km) Brightness Sun altitude
Rises 19:46:28 0° 288° (WNW) 4,935 13.5 -16.6°
Reaches altitude 10° 19:49:51 10° 282° (WNW) 3,951 12.4 -17.2°
Maximum altitude 19:59:06 42° 217° (SW) 2,255 10.0 -18.6°
Enters shadow 20:07:02 14° 154° (SSE) 3,567 10.5 -19.7°
Drops below altitude 10° 20:08:15 10° 151° (SSE) 3,902 - -19.9°
Sets 20:11:35 0° 144° (SE) 4,869 - -20.4°
